{"data":{"norad_id":46706,"intl_designator":"2020-073AN","name":"STARLINK-1807","alt_names":[],"object_type":"PAYLOAD","status":"ACTIVE","operator":null,"country":"US","launch_date":"2020-10-18","launch_site_code":"AFETR","launch_vehicle":null,"mission":null,"orbit_class":"UNKNOWN","rcs_meters":null,"size_class":null,"mass_kg":null,"dimensions":null,"purposes":["comms"],"wikipedia_slug":null,"has_3d_model":false,"image_url":null,"decayed_at":null,"tle_current":{"epoch":"2026-09-20T00:08:15.122976Z","epoch_age_seconds":64600,"freshness":"FRESH","line1":"1 46706U 20073AN  26263.00573059  .00044687  00000+0  11544-2 0  9998","line2":"2 46706  53.0537  42.0346 0002407  15.1942 344.9132 15.38707321327096","mean_motion":15.38707321,"eccentricity":0.0002407,"inclination_deg":53.0537,"raan_deg":42.0346,"arg_perigee_deg":15.1942,"mean_anomaly_deg":344.9132,"bstar":0.0011544,"rev_number":32709,"period_min":93.585048978915,"perigee_km":448.28733244227,"apogee_km":451.57436430448,"semimajor_km":6828.0678483734,"source":"CELESTRAK","updated_at":"2026-09-20T09:00:38.586384Z"}}}